Farmington, NM

2:07 AM MST on December 15, 2017 (GMT -0700)
Four Corners Regional

Weather History for KFMN - April, 2013

Change the Weather History Date:

Sunday, April 28, 2013

  Actual Average Record
Temperature  
Mean Temperature 56 °F -  
Max Temperature 78 °F 68 °F 84 °F (1992)
Min Temperature 33 °F 36 °F 27 °F (1991)
Degree Days  
Heating Degree Days 10    
Growing Degree Days 6 (Base 50)    
Moisture  
Dew Point 11 °F    
Average Humidity 16    
Maximum Humidity 37    
Minimum Humidity 4    
Precipitation  
Precipitation 0.00 in - - ()
Sea Level Pressure  
Sea Level Pressure 29.96 in    
Wind  
Wind Speed 6 mph (NW)    
Max Wind Speed 17 mph    
Max Gust Speed 24 mph    
Visibility 10 miles    
Events      
Averages and records for this station are not official NWS values.
T = Trace of Precipitation, MM = Missing Value Source: NWS Daily Summary

Daily Weather History Graph

Daily Weather History Graph

Search for Another Location

Airport or City:

Trip Planner

Search our weather history database for the weather conditions in past years. The results will help you decide how hot, cold, wet, or windy it might be!

Date:

Astronomy

Apr. 28, 2013 Rise Set
Actual Time 6:22 AM MDT 7:59 PM MDT
Civil Twilight 5:54 AM MDT 8:26 PM MDT
Nautical Twilight 5:21 AM MDT 9:00 PM MDT
Astronomical Twilight 4:46 AM MDT 9:35 PM MDT
Moon 11:29 PM MDT (4/28) 8:44 AM MDT (4/28)
Length of Visible Light 14h 32m
Length of Day
13h 36m
Waning Gibbous, 88% of the Moon is Illuminated
Apr 28
Waning Gibbous
May 2
Last Quarter
May 9
New
May 17
First Quarter
May 24
Full

Hourly Weather History & Observations

Time (MDT) Temp. Windchill Dew Point Humidity Pressure Visibility Wind Dir Wind Speed Gust Speed Precip Events Conditions
12:53 AM 46.0 °F 44.8 °F 8.1 °F 21% 30.05 in 10.0 mi Variable 3.5 mph - N/A   Clear
1:53 AM 43.0 °F 41.3 °F 9.0 °F 25% 30.04 in 10.0 mi NNE 3.5 mph - N/A   Clear
2:53 AM 43.0 °F 41.3 °F 10.0 °F 26% 30.03 in 10.0 mi East 3.5 mph - N/A   Clear
3:53 AM 37.9 °F 35.5 °F 10.9 °F 33% 30.04 in 10.0 mi NE 3.5 mph - N/A   Clear
4:53 AM 36.0 °F 31.1 °F 10.0 °F 34% 30.04 in 10.0 mi NE 5.8 mph - N/A   Clear
5:53 AM 35.1 °F 31.0 °F 10.9 °F 37% 30.06 in 10.0 mi North 4.6 mph - N/A   Clear
7:53 AM 45.0 °F 40.1 °F 16.0 °F 31% 30.06 in 10.0 mi ESE 9.2 mph - N/A   Clear
8:53 AM 50.0 °F - 17.1 °F 27% 30.06 in 10.0 mi ESE 9.2 mph - N/A   Clear
9:53 AM 55.9 °F - 18.0 °F 23% 30.06 in 10.0 mi ESE 4.6 mph - N/A   Clear
10:53 AM 62.1 °F - 14.0 °F 15% 30.02 in 10.0 mi Calm Calm - N/A   Clear
11:53 AM 69.1 °F - 16.0 °F 13% 29.99 in 10.0 mi West 4.6 mph - N/A   Clear
12:53 PM 73.9 °F - 12.0 °F 9% 29.98 in 10.0 mi WSW 12.7 mph 17.3 mph N/A   Clear
1:53 PM 75.9 °F - 9.0 °F 8% 29.95 in 10.0 mi SW 12.7 mph 17.3 mph N/A   Clear
3:53 PM 77.0 °F - 3.9 °F 6% 29.90 in 10.0 mi WNW 9.2 mph - N/A   Clear
4:53 PM 78.1 °F - 3.0 °F 5% 29.88 in 10.0 mi West 17.3 mph 24.2 mph N/A   Clear
6:53 PM 75.0 °F - 7.0 °F 7% 29.86 in 10.0 mi WNW 17.3 mph 24.2 mph N/A   Clear
7:53 PM 70.0 °F - 8.1 °F 9% 29.86 in 10.0 mi WNW 10.4 mph - N/A   Clear
8:53 PM 64.9 °F - 12.0 °F 13% 29.86 in 10.0 mi WNW 8.1 mph - N/A   Clear
9:53 PM 63.0 °F - 12.0 °F 14% 29.86 in 10.0 mi Calm Calm - N/A   Clear
10:53 PM 59.0 °F - 12.9 °F 16% 29.86 in 10.0 mi WSW 6.9 mph - N/A   Clear
11:53 PM 54.0 °F - 12.9 °F 20% 29.85 in 10.0 mi Calm Calm - N/A   Clear